Zurück zum Katalog

STARLINK-36796

AktivKommunikationSSO
NORAD 67722·PAYLOAD·🇺🇸 United States

Gestartet Feb 11, 2026 von Vandenberg Space Force Base

Loading…

Nächste Überflüge (nächste 24 Stunden)

TLE

AktuellSource: CelesTrak SupGP

Epoche: Sep 14, 2026, 20:48 UTC

1 67722C 26026B   26257.86715278 -.00020181  00000+0 -62658-3 0  2576
2 67722  97.2842 309.7123 0001115  99.9201 235.7987 15.33443905    10

Verfolge STARLINK-36796 in Echtzeit mit AllMySat

Download on the App Store